Location: Ansan
(43.6898°N, 0.7731°E)
Time: 11:36:12
(UTC+00:00)

Cosmos 2084 Rocket - Pass Details

Date: 15 May 2026
Orbit: 527 x 582 km, 62.8° (Epoch: 9 June)

Event Time Altitude Azimuth Distance (km) Brightness Sun altitude
Rises 19:41:51 0° 324° (NW) 2,757 8.4 -5.0°
Reaches altitude 10° 19:44:05 10° 329° (NNW) 1,866 7.3 -5.3°
Maximum altitude 19:48:15 61° 50° (NE) 654 3.6 -5.9°
Drops below altitude 10° 19:52:28 10° 131° (SE) 1,882 5.4 -6.6°
Enters shadow 19:52:51 - 132° (SE) 2,035 5.5 -6.6°
